Starlink 30893

operational
NORAD ID: 58724 Int'l Des: 2024-002 Owner: SPXS Country: US Constellation: starlink
LEOCIRCULAR

Starlink 30893について

説明を読み込み中...

リアルタイム位置

3D地球を読み込み中...

次回通過

高度履歴

Altitude vs Time

uPlot chart will show altitude changes over time

軌道要素

1 58724U 24002V 25257.48038401 -.00004399 00000-0 -13663-3 0 9992
2 58724 53.1635 328.6471 0000872 67.9706 292.1387 15.30167388 95024
Epoch: Sep 14, 2025 • Age: 34 hours

現在のステータス

高度 491.0 km
速度 7.62 km/s
衛星直下点 -44.56°S, 128.28°W
打ち上げ日 Jan 3, 2024
運用期間 1.7 years
タイプ internet

技術仕様

分類 Payload
質量 730.00 kg
乾燥質量 700.00 kg
総質量 730.00 kg
長さ 0.30 m
直径 4.10 m
スパン 29.00 m
形状 Box + pan
製造者 SPXS
バスタイプ Starlink V2M
フェーズステータス In Orbit
所有者/国 SPXS/US

大規模コンステレーション

Loading constellations...